Погода в Дубровном

Россия / Тюменская область     57°57′09″N   69°25′48″E
темп.,
°C
ветер,
м/с
пор.,
м/с
влажн.,
%
обл.,
%
осадки,
мм/ч
давл.,
гПа
погр.,
м
8 мая, сб
сб823:00+13зюз3125461 0.0 1017306
02:00+10зюз276728 0.0 1018133
05:00+10зюз311665 0.0 1018219
08:00+16з364451 0.0 1018408
11:00+22з36326 0.0 10181800
14:00+24зсз35255 0.0 10172968
17:00+23сз23247 0.0 10162926
20:00+18всв494387 0.0 1017334
9 мая, вс
вс923:00+14в31060100 0.0 1018295
02:00+13в31065100 0.1 1018291
05:00+11в396872 0.2 1019253
08:00+14в474565 0.0 1020500
11:00+19в463657 0.0 10201098
14:00+20всв5634100 0.0 10201624
17:00+19всв563494 0.0 10211592
20:00+15всв494493 0.0 1022423
10 мая, пн
пн1023:00+12всв41150100 0.0 1023429
02:00+9всв3958100 0.0 1024281
05:00+8всв3860100 0.0 1025237
08:00+13в3644100 0.0 1026593
11:00+17в453294 0.0 10261598
14:00+19в35289 0.0 10261838
17:00+19всв34303 0.0 10251821
20:00+14всв22473 0.0 102519
11 мая, вт
вт1123:00+11в22570 0.0 102612
02:00+9в11623 0.0 102610
05:00+8вюв116667 0.0 102715
08:00+15ю124556 0.0 1026382
11:00+19юз2232100 0.0 10251497
14:00+20зюз2427100 0.0 10241937
17:00+19з3431100 0.0 10231961
20:00+15з2643100 0.0 1022129
12 мая, ср
ср1223:00+12ссз397997 0.1 1022436
02:00+9ссз51079100 0.1 1023552
05:00+7ссз5118061 0.1 1024729
08:00+10с59522 0.0 1025942
11:00+14с610300 0.0 10251646
14:00+16с68255 0.0 10252154
17:00+16с572411 0.0 10252268
20:00+12ссв383417 0.0 1026271